Location: *
(2.5500°S, 65.9667°W)
Time: 16:57:18
(UTC+00:00)

Vanguard 3 - All Passes

Search period start: 23 April 2024 00:00
Search period end: 03 May 2024 00:00
Orbit: 510 x 3235 km, 33.3° (Epoch: 23 April)

Date Brightness Start Highest point End Pass type
(mag) Time Alt. Az. Time Alt. Az. Time Alt. Az.
23 Apr - 00:49:16 10° SSW 01:02:27 34° SSE 01:19:12 10° E visible
23 Apr - 03:01:35 10° SW 03:19:47 78° SE 03:38:48 10° ENE visible
23 Apr - 05:18:09 10° WSW 05:36:47 49° NW 05:52:11 10° NNE visible
23 Apr - 07:44:19 10° WNW 07:53:34 16° NNW 08:01:09 10° N visible
23 Apr - 14:40:45 10° N 14:42:58 14° NNE 14:45:02 10° ENE daylight
23 Apr - 16:50:39 10° W 16:54:05 36° SSW 16:58:15 10° SE daylight
23 Apr - 23:32:24 10° SSW 23:41:34 21° SSE 23:53:33 10° ESE visible
24 Apr - 01:43:06 10° SW 01:58:44 54° SE 02:17:49 10° ENE visible
24 Apr - 03:56:58 10° WSW 04:15:51 72° NW 04:33:57 10° NE visible
24 Apr - 06:17:17 10° W 06:32:51 29° NW 06:45:26 10° NNE visible
24 Apr - 15:33:16 10° NW 15:37:04 62° NE 15:40:50 10° ESE daylight
24 Apr - 17:47:10 10° SW 17:48:45 12° SSW 17:50:30 10° S daylight
24 Apr - 22:17:28 10° S 22:20:54 11° SSE 22:24:49 10° SE daylight
25 Apr - 00:25:35 10° SSW 00:38:00 35° SE 00:54:40 10° E visible
25 Apr - 02:37:27 10° SW 02:54:45 82° SE 03:14:24 10° ENE visible
25 Apr - 04:53:47 10° WSW 05:11:57 46° NW 05:28:06 10° NNE visible
25 Apr - 07:20:02 10° WNW 07:29:36 16° NNW 07:37:36 10° N visible
25 Apr - 14:16:36 10° NNW 14:19:53 20° NNE 14:22:41 10° E daylight
25 Apr - 16:27:51 10° W 16:31:02 27° SSW 16:34:31 10° SSE daylight
25 Apr - 23:09:06 10° SSW 23:17:36 21° SSE 23:28:58 10° ESE visible
26 Apr - 01:19:12 10° SW 01:33:54 57° SE 01:53:12 10° ENE visible
26 Apr - 03:32:45 10° WSW 03:50:48 68° NW 04:09:34 10° NE visible
26 Apr - 05:52:58 10° W 06:08:22 28° NNW 06:21:27 10° NNE visible
26 Apr - 15:09:52 10° NW 15:14:00 84° NE 15:17:41 10° ESE daylight
26 Apr - 21:55:42 10° SSE 21:57:23 10° SSE 21:59:11 10° SSE daylight
27 Apr - 00:01:57 10° SSW 00:13:33 37° SE 00:29:57 10° E visible
27 Apr - 02:13:26 10° SW 02:29:41 87° SE 02:49:45 10° NE visible
27 Apr - 04:29:33 10° W 04:47:03 44° NW 05:03:46 10° NNE visible
27 Apr - 06:55:45 10° WNW 07:05:32 16° NNW 07:13:56 10° N visible
27 Apr - 13:52:27 10° NNW 13:56:46 27° NNE 14:00:07 10° E daylight
27 Apr - 16:05:00 10° W 16:07:54 21° SSW 16:10:49 10° SSE daylight
27 Apr - 22:45:47 10° SSW 22:53:37 21° SSE 23:04:17 10° ESE visible
28 Apr - 00:55:24 10° SW 01:09:04 60° SE 01:28:21 10° ENE visible
28 Apr - 03:08:40 10° WSW 03:25:43 64° NW 03:44:56 10° NE visible
28 Apr - 05:28:47 10° W 05:43:48 27° NNW 05:57:17 10° NNE visible
28 Apr - 12:35:29 10° N 12:38:43 14° NNE 12:41:21 10° NE daylight
28 Apr - 14:46:18 10° WNW 14:50:51 74° SW 14:54:31 10° SE daylight
28 Apr - 23:38:22 10° SSW 23:49:07 38° SE 00:05:04 10° E visible
29 Apr - 01:49:32 10° SW 02:04:40 89° NW 02:24:51 10° NE visible
29 Apr - 04:05:28 10° W 04:22:08 41° NNW 04:39:13 10° NNE visible
29 Apr - 06:31:31 10° NW 06:41:26 16° NNW 06:50:10 10° N visible
29 Apr - 13:28:11 10° NW 13:33:35 37° NNE 13:37:23 10° E daylight
29 Apr - 15:42:04 10° WSW 15:44:39 17° SW 15:47:07 10° S daylight
29 Apr - 22:22:27 10° S 22:29:38 21° SE 22:39:33 10° ESE visible
30 Apr - 00:31:40 10° SW 00:44:17 64° SE 01:03:18 10° ENE visible
30 Apr - 02:44:43 10° WSW 03:00:41 59° NW 03:20:03 10° NE visible
30 Apr - 05:04:43 10° WNW 05:19:13 25° NNW 05:32:55 10° NNE visible
30 Apr - 12:10:13 10° NNW 12:15:29 20° NNE 12:19:18 10° ENE daylight
30 Apr - 14:22:34 10° WNW 14:27:37 57° SW 14:31:20 10° SE daylight
30 Apr - 23:14:49 10° SSW 23:24:43 39° SE 23:40:02 10° E visible
01 May - 01:25:44 10° WSW 01:39:42 84° NW 01:59:44 10° NE visible
01 May - 03:41:31 10° W 03:57:15 38° NNW 04:14:26 10° NNE visible
01 May - 06:07:20 10° NW 06:17:16 16° NNW 06:26:14 10° NNE visible
01 May - 10:52:15 10° N 10:56:28 13° NNE 10:59:52 10° NE daylight
01 May - 13:03:46 10° NW 13:10:19 49° NNE 13:14:32 10° ESE daylight
01 May - 15:19:02 10° WSW 15:21:18 14° SW 15:23:23 10° S daylight
01 May - 21:59:07 10° S 22:05:40 20° SE 22:14:47 10° ESE daylight
02 May - 00:08:01 10° SW 00:19:35 67° SE 00:38:04 10° ENE visible
02 May - 02:20:53 10° WSW 02:35:42 55° NNW 02:54:55 10° NE visible
02 May - 04:40:47 10° WNW 04:54:38 24° NNW 05:08:21 10° NNE visible
02 May - 07:13:00 10° NNW 07:16:08 11° N 07:19:06 10° N visible
02 May - 09:34:08 10° N 09:36:21 11° N 09:38:24 10° NNE visible
02 May - 11:45:02 10° NNW 11:52:09 26° NNE 11:56:50 10° E daylight
02 May - 13:58:39 10° WNW 14:04:15 47° SW 14:08:07 10° SE daylight
02 May - 22:51:17 10° SSW 23:00:21 40° SE 23:14:55 10° ENE visible
